FW1003 Weather Reports


Display with metric or nautical units.
time (UTC)temp
F
wind
direction
speed
MPH
gust
MPH
rain 1hr
in
rain 24hr
in
rain mn
in
humidity
%
barometer
mb
20260905131559 91 90 1.0 7.0 0.00 0.00 0.00 55 1013.2
20260905130045 90 302 3.0 9.0 0.00 0.00 0.00 55 1013.3
20260905124549 92 173 1.0 4.0 0.00 0.00 0.00 53 1013.3
20260905123054 92 217 1.0 6.0 0.00 0.00 0.00 54 1013.4
20260905121545 92 78 2.0 6.0 0.00 0.00 0.00 52 1013.4
20260905120045 92 64 1.0 5.0 0.00 0.00 0.00 53 1013.5
20260905114545 92 311 2.0 8.0 0.00 0.00 0.00 52 1013.6
20260905113043 92 339 2.0 5.0 0.00 0.00 0.00 52 1013.6
20260905111551 92 139 2.0 7.0 0.00 0.00 0.00 52 1013.7
20260905110040 93 9 2.0 6.0 0.00 0.00 0.00 51 1013.7
20260905104537 93 51 2.0 5.0 0.00 0.00 0.00 53 1013.7
20260905103036 93 340 2.0 9.0 0.00 0.00 0.00 51 1013.6
20260905101540 93 345 2.0 6.0 0.00 0.00 0.00 51 1013.7
20260905100033 93 342 1.0 8.0 0.00 0.00 0.00 51 1013.8
20260905094529 94 340 1.0 6.0 0.00 0.00 0.00 51 1013.8
20260905093026 93 126 1.0 9.0 0.00 0.00 0.00 52 1013.8
20260905091523 93 136 2.0 5.0 0.00 0.00 0.00 52 1013.7
20260905090018 92 90 1.0 5.0 0.00 0.00 0.00 53 1013.9
20260905084544 91 79 2.0 8.0 0.00 0.00 0.00 54 1013.7
20260905083019 91 135 3.0 9.0 0.00 0.00 0.00 55 1013.6
20260905081509 91 318 1.0 5.0 0.00 0.00 0.00 54 1013.7
20260905080005 90 165 3.0 8.0 0.00 0.00 0.00 56 1013.5
20260905074502 89 121 2.0 9.0 0.00 0.00 0.00 57 1013.5
20260905073005 90 65 2.0 7.0 0.00 0.00 0.00 57 1013.8
20260905071602 89 205 2.0 8.0 0.00 0.00 0.00 59 1014.0
20260905064551 87 178 2.0 6.0 0.00 0.00 0.00 62 1013.8
20260905063051 86 169 2.0 6.0 0.00 0.00 0.00 62 1013.9
20260905061549 86 130 1.0 6.0 0.00 0.00 0.00 63 1013.6
20260905060045 87 112 2.0 7.0 0.00 0.00 0.00 63 1013.7
20260905054541 86 130 1.0 4.0 0.00 0.00 0.00 64 1013.6
20260905053037 85 122 1.0 4.0 0.00 0.00 0.00 67 1013.6
20260905051537 83 112 2.0 4.0 0.00 0.00 0.00 70 1013.6
20260905050030 82 63 0.0 0.0 0.00 0.00 0.00 74 1013.5
20260905044525 80 53 0.0 0.0 0.00 0.00 0.00 77 1013.3
20260905043020 77 52 0.0 0.0 0.00 0.00 0.00 77 1013.3
20260905041520 77 52 0.0 0.0 0.00 0.00 0.00 77 1013.1
20260905040016 76 52 0.0 0.0 0.00 0.00 0.00 77 1013.0
20260905034522 75 52 0.0 0.0 0.00 0.00 0.00 75 1012.9
20260905033010 75 52 0.0 0.0 0.00 0.00 0.00 75 1012.8
20260905031508 75 52 0.0 0.0 0.00 0.00 0.00 75 1012.8
20260905030021 75 52 0.0 0.0 0.00 0.00 0.00 75 1012.7
20260905024507 75 52 0.0 0.0 0.00 0.00 0.00 75 1012.7
20260905023019 75 52 0.0 0.0 0.00 0.00 0.00 74 1012.6
20260905021510 75 52 0.0 0.0 0.00 0.00 0.00 73 1012.6
20260905020006 76 52 0.0 0.0 0.00 0.00 0.00 74 1012.4
20260905014508 76 53 0.0 0.0 0.00 0.00 0.00 74 1012.4
20260905013004 76 52 0.0 0.0 0.00 0.00 0.00 75 1012.4
20260905011504 76 52 0.0 0.0 0.00 0.00 0.00 74 1012.5
20260905010004 76 53 0.0 0.0 0.00 0.00 0.00 75 1012.4
20260905004501 75 53 0.0 0.0 0.00 0.00 0.00 74 1012.5
20260905003101 75 52 0.0 0.0 0.00 0.00 0.00 74 1012.4
20260905001559 76 52 0.0 0.0 0.00 0.00 0.00 73 1012.4
20260905000058 76 52 0.0 0.0 0.00 0.00 0.00 73 1012.4
20260904234557 76 52 0.0 0.0 0.00 0.00 0.00 73 1012.3
20260904233103 76 52 0.0 0.0 0.00 0.00 0.00 73 1012.3
20260904231554 76 52 0.0 0.0 0.00 0.00 0.00 72 1012.3
20260904230054 76 52 0.0 0.0 0.00 0.00 0.00 72 1012.4
20260904224552 76 52 0.0 0.0 0.00 0.00 0.00 71 1012.4
20260904223050 76 52 0.0 0.0 0.00 0.00 0.00 71 1012.6
20260904221551 77 56 0.0 0.0 0.00 0.00 0.00 71 1012.6
20260904220048 77 52 0.0 0.0 0.00 0.00 0.00 71 1012.6
20260904214548 77 52 0.0 0.0 0.00 0.00 0.00 71 1012.7
20260904213046 77 53 0.0 0.0 0.00 0.00 0.00 71 1012.7
20260904211544 77 53 0.0 0.0 0.00 0.00 0.00 71 1012.7
20260904210046 77 52 0.0 0.0 0.00 0.00 0.00 71 1012.5
20260904204543 78 53 0.0 0.0 0.00 0.00 0.00 70 1012.7
20260904203045 78 53 0.0 0.0 0.00 0.00 0.00 70 1012.7
20260904201540 78 53 0.0 2.0 0.00 0.00 0.00 71 1012.7
20260904200045 79 52 0.0 2.0 0.00 0.00 0.00 71 1012.6
20260904194542 79 53 0.0 0.0 0.00 0.00 0.00 70 1012.6
20260904193045 79 52 0.0 1.0 0.00 0.00 0.00 70 1012.6
20260904191538 79 52 0.0 2.0 0.00 0.00 0.00 70 1012.7
20260904190037 79 53 0.0 0.0 0.00 0.00 0.00 71 1012.6
20260904184553 79 52 0.0 0.0 0.00 0.00 0.00 70 1012.6
20260904183037 80 52 0.0 0.0 0.00 0.00 0.00 69 1012.7
20260904181535 80 52 0.0 0.0 0.00 0.00 0.00 68 1012.7
20260904180041 81 52 0.0 0.0 0.00 0.00 0.00 68 1012.6
20260904174538 81 52 0.0 0.0 0.00 0.00 0.00 67 1012.5
20260904173035 81 52 0.0 0.0 0.00 0.00 0.00 66 1012.3
20260904171530 82 52 0.0 0.0 0.00 0.00 0.00 66 1012.2
20260904170029 83 52 0.0 0.0 0.00 0.00 0.00 64 1012.0
20260904164529 84 52 0.0 1.0 0.00 0.00 0.00 63 1011.8
20260904163030 84 52 0.0 0.0 0.00 0.00 0.00 63 1011.4
20260904161527 85 52 0.0 2.0 0.00 0.00 0.00 62 1011.3
20260904160037 86 53 0.0 2.0 0.00 0.00 0.00 62 1011.2
20260904154527 86 58 1.0 3.0 0.00 0.00 0.00 61 1011.2
20260904153028 86 57 0.0 4.0 0.00 0.00 0.00 61 1011.1
20260904151525 87 57 0.0 3.0 0.00 0.00 0.00 60 1011.0
20260904150024 87 74 1.0 4.0 0.00 0.00 0.00 60 1011.1
20260904144527 88 355 1.0 5.0 0.00 0.00 0.00 60 1011.2
20260904143023 88 115 0.0 6.0 0.00 0.00 0.00 59 1011.2
20260904141522 89 50 1.0 4.0 0.00 0.00 0.00 57 1011.0
20260904140021 90 185 1.0 4.0 0.00 0.00 0.00 57 1011.1
20260904134522 90 360 2.0 11.0 0.00 0.00 0.00 57 1011.0
20260904133019 92 180 2.0 8.0 0.00 0.00 0.00 54 1011.0